Regional Weather Roundup
Issued by NWS

Home | Current Version | Previous Version | Graphics & Text | Print | Product List | Glossary Off
Versions: 1 2 3 4 5 6 7 8 9 10 11 12 13 14 15 16 17 18 19 20 21 22 23 24 25 26 27 28 29 30 31 32 33 34 35 36 37 38 39 40 41 42 43 44 45 46 47 48 49 50

000
ASUS43 KMKX 280020
RWRWI

WISCONSIN REGIONAL WEATHER ROUNDUP
NATIONAL WEATHER SERVICE MILWAUKEE/SULLIVAN WI
700 PM CDT WED MAY 27 2015

NOTE: "FAIR" INDICATES FEW OR NO CLOUDS BELOW 12,000 FEET WITH NO
SIGNIFICANT WEATHER AND/OR OBSTRUCTIONS TO VISIBILITY.

WIZ001-002-006>008-014>016-023>028-280100-
NORTHWEST WISCONSIN

CITY           SKY/WX    TMP DP  RH WIND       PRES   REMARKS
SUPERIOR ARPT  SUNNY     80  51  36 NE3       29.91R HX  80
ASHLAND        PTSUNNY   71  61  70 S5        29.93R
6HR MIN TEMP:  69; 6HR MAX TEMP:  84; 6HR PCP:  0.03;

HAYWARD        PTSUNNY   68  59  73 S7        29.96S
6HR MIN TEMP:  60; 6HR MAX TEMP:  79; 6HR PCP:  0.01;

SIREN          SUNNY     81  45  28 W12       29.95R HX  80
CUMBERLAND     MOSUNNY   75  55  50 SW9       29.96S
RICE LAKE      SUNNY     80  54  41 SW8       29.97S HX  80
CHETEK         SUNNY     78  56  46 MISG      29.95F
LADYSMITH      TSTM      62  54  74 NW13      30.04R
EAU CLAIRE     NOT AVBL
MENOMONIE      MOSUNNY   80  57  45 W9        29.97R HX  80
NEW RICHMOND   MOSUNNY   79  53  40 W5        29.97S
OSCEOLA        MOSUNNY   80  55  42 SW7       29.98S HX  80
$$

WIZ003>005-009-010-017-018-280100-
NORTH CENTRAL WISCONSIN

CITY           SKY/WX    TMP DP  RH WIND       PRES   REMARKS
MANITOWISH WTR CLOUDY    64  52  64 W3        29.96S
ARBOR VITAE    CLOUDY    62  56  80 CALM      29.96F
WOODRUFF       CLOUDY    62  56  80 CALM      29.96F
RHINELANDER    HVY RAIN  62  58  86 SW6       30.01R FOG
6HR MIN TEMP:  61; 6HR MAX TEMP:  77; 6HR PCP:  0.14;

EAGLE RIVER    CLOUDY    66  51  58 W8        29.96R
LAND O LAKES   PTSUNNY   72  51  48 W9        29.96R
PHILLIPS       TSTM      63  55  74 SW8       29.96S
TOMAHAWK       MOSUNNY   72  55  56 W6        29.97S
MEDFORD        MOSUNNY   71  59  66 SW3       30.00R
MERRILL        MOSUNNY   73  60  63 W12       29.98R
$$

WIZ029-030-035-036-043>047-280100-
CENTRAL WISCONSIN

CITY           SKY/WX    TMP DP  RH WIND       PRES   REMARKS
WAUSAU         SUNNY     73  59  61 W8        29.97R
6HR MIN TEMP:  67; 6HR MAX TEMP:  76;

MOSINEE        MOSUNNY   73  61  64 W8        30.00R
MARSHFIELD     SUNNY     74  58  57 W9        29.99R
6HR MIN TEMP:  71; 6HR MAX TEMP:  77;

STEVENS POINT  SUNNY     74  57  55 W9        29.99R
WAUPACA        SUNNY     78  58  50 SW12      29.98R
WAUTOMA        NOT AVBL
WISC RAPIDS    SUNNY     76  56  49 W7        30.00R
6HR MIN TEMP:  71; 6HR MAX TEMP:  79;

CAMP DOUGLAS   NOT AVBL
$$

WIZ011>013-019>022-031-037>040-048>050-280100-
NORTHEAST WISCONSIN

CITY           SKY/WX    TMP DP  RH WIND       PRES   REMARKS
ANTIGO         SUNNY     70  59  68 W13G21    29.98R
SHAWANO        SUNNY     77  58  53 W8        29.97R
OCONTO         CLOUDY    68  50  52 SE6       29.96R
STURGEON BAY   MOSUNNY   59  54  82 SW6       30.02S
6HR MIN TEMP:  57; 6HR MAX TEMP:  72;

GREEN BAY      SUNNY     76  60  57 W10       29.98R
6HR MIN TEMP:  66; 6HR MAX TEMP:  76;

MANITOWOC      NOT AVBL
APPLETON       MOSUNNY   73  55  53 W9        29.99R
CLINTONVILLE   SUNNY     75  55  50 W7        29.97R
OSHKOSH        SUNNY     75  58  55 VRB3      29.99R
6HR MIN TEMP:  65; 6HR MAX TEMP:  76;

$$

WIZ032>034-041-042-053>061-280100-
SOUTHWEST WISCONSIN

CITY           SKY/WX    TMP DP  RH WIND       PRES   REMARKS
LA CROSSE      SUNNY     80  60  50 SW6       29.98S HX  81
6HR MIN TEMP:  76; 6HR MAX TEMP:  82;

SPARTA         SUNNY     78  55  45 SW6       30.00S
VIROQUA        SUNNY     76  58  54 SW8G16    30.03S
BOSCOBEL       SUNNY     78  58  49 SW6       30.01F
6HR MIN TEMP:  73; 6HR MAX TEMP:  80;

PRAIRIE DU CHI SUNNY     78  55  44 W6        30.01S
PLATTEVILLE    SUNNY     76  58  52 W7        30.04S
$$

WIZ056-057-062-063-064-067-068-280100-
SOUTH CENTRAL WISCONSIN

CITY           SKY/WX    TMP DP  RH WIND       PRES   REMARKS
REEDSBURG      SUNNY     75  59  57 W9        30.01S
BARABOO/DELLS  SUNNY     74  57  55 SW7       30.02S
LONE ROCK      NOT AVBL
MINERAL POINT  SUNNY     77  57  50 W6        30.04F
MADISON        SUNNY     75  55  49 CALM      30.02S
6HR MIN TEMP:  69; 6HR MAX TEMP:  77;

MIDDLETON      SUNNY     76  54  46 W8        30.03S
WATERTOWN      SUNNY    N/A N/A N/A W7        30.02S
MONROE         SUNNY     73  55  53 W10       30.05S
JANESVILLE     SUNNY     75  54  46 W7        30.03F
$$

WIZ051-052-058>065-066-070>072-280100-
SOUTHEAST WISCONSIN

CITY           SKY/WX    TMP DP  RH WIND       PRES   REMARKS
MILWAUKEE      SUNNY     67  55  65 SE8       30.03S
6HR MIN TEMP:  64; 6HR MAX TEMP:  72; 6HR PCP: TRACE;

WAUKESHA       SUNNY     70  54  56 W6        30.04S
MILWAUKEE/TIMM SUNNY     73  52  46 W8        30.03S
RACINE         SUNNY     67  55  65 SE6       30.05R
6HR MIN TEMP:  65; 6HR MAX TEMP:  71; 6HR PCP: TRACE;

BURLINGTON     SUNNY     70  53  54 W7        30.04S
KENOSHA        SUNNY     69  57  65 SE6       30.04S
6HR MIN TEMP:  63; 6HR MAX TEMP:  74; 6HR PCP:  0.02;

FOND DU LAC    SUNNY     74  57  55 SW10      30.01R
6HR MIN TEMP:  65; 6HR MAX TEMP:  75;

SHEBOYGAN      SUNNY     72  58  61 SW9       30.00R
6HR MIN TEMP:  65; 6HR MAX TEMP:  73;

WEST BEND      SUNNY     72  54  53 W9        30.01F
JUNEAU         SUNNY     73  56  56 SW12      30.03S
$$

LSZ147-162-280100-
LAKE SUPERIOR

STATION/POSITION TIME  TEMP    WIND        PRES    WAVE
                       AIR SEA DIR/SP/G            HT/PER
                 (UTC) (F)     (DEG/KT/KT) (MB)    (FT/S)
W MID LAKE BUOY  2250      37  230/  8/ 17   N/A     1/ 4
DEVILS ISLAND    2300   71     210/  9/ 11   N/A
PORT WING        2340   71     160/  2/  4   N/A
SAXON HARBOR     2300          120/  2/ 16   N/A
$$

LMZ867-665-643>646-280100-
LAKE MICHIGAN

STATION/POSITION TIME  TEMP    WIND        PRES    WAVE
                       AIR SEA DIR/SP/G            HT/PER
                 (UTC) (F)     (DEG/KT/KT) (MB)    (FT/S)
CHAMBERS ISLAND  2300   59     190/  5/  6   N/A
N MID LAKE BUOY  2250   44 37  190/ 10/ 12   N/A     1/ 5
NORTHPORT PIER   2300   65     240/  6/ 15   N/A
SISTER BAY       2218   64     230/ 15/ 20   N/A
ALGOMA LAKESHORE 2208          240/ 15/ 21   N/A
KEWAUNEE LAKESHO 2200   73     260/  9/ 15   N/A
SHEBOYGAN LAKESH 2300   63     180/ 16/ 17   N/A
PORT WASHINGTON  2300   63     210/  4/  8   N/A
ATWATER BUOY     2200   55 49  180/  4/  6   N/A
MILWAUKEE LAKESH 2200   58     120/  1/  3   N/A
S MID LAKE BUOY  2350   47 38  270/  4/  6   N/A     1
KENOSHA   LAKESH 2300   68     160/  3/  3   N/A
$$

TC  - TEMPERATURE IN CELSIUS
VSB - VISIBILITY IN STATUTE MILES
WCI - WIND CHILL INDEX
HX  - HEAT INDEX



USA.gov is the U.S. government's official web portal to all federal, state and local government web resources and services.